• In Hungary
  • List of Countries
  • For 7 days
  • Water Temperature
  • Satellite Maps
  • Weather Map
  • News
  • Weather Widgets
  • user-avatar
    Login

    Hourly Weather Polchowo

    Today, 18 December, Monday

    Time Temperature Precipitation Wind Pressure Humidity
    00:00 -1°C° 0 mm 1 mps 758 mmHg 92%
    01:00 -1°C° 0 mm 1 mps 759 mmHg 93%
    02:00 -1°C° 0 mm 1 mps 759 mmHg 93%
    03:00 -1°C° 0 mm 1 mps 759 mmHg 93%
    04:00 -3°C° 0 mm 2 mps 759 mmHg 94%
    05:00 -3°C° 0 mm 2 mps 759 mmHg 94%
    06:00 -1°C° 0 mm 1 mps 759 mmHg 94%
    07:00 -1°C° 0 mm 1 mps 759 mmHg 94%
    08:00 -1°C° 0 mm 1 mps 760 mmHg 92%
    09:00 -1°C° 0 mm 1 mps 760 mmHg 90%
    10:00 -2°C° 0 mm 2 mps 761 mmHg 87%
    11:00 -2°C° 0 mm 2 mps 761 mmHg 84%
    12:00 -1°C° 0 mm 2 mps 761 mmHg 80%
    13:00 +1°C° 0 mm 1 mps 761 mmHg 78%
    14:00 +1°C° 0 mm 1 mps 761 mmHg 80%
    15:00 -2°C° 0 mm 2 mps 761 mmHg 83%
    16:00 -3°C° 0 mm 2 mps 762 mmHg 86%
    17:00 -3°C° 0 mm 2 mps 762 mmHg 86%
    18:00 -3°C° 0 mm 2 mps 762 mmHg 86%
    19:00 -3°C° 0 mm 2 mps 762 mmHg 86%
    20:00 -3°C° 0 mm 2 mps 762 mmHg 86%
    21:00 -3°C° 0 mm 2 mps 762 mmHg 86%
    22:00 -3°C° 0 mm 2 mps 762 mmHg 85%
    23:00 -3°C° 0 mm 2 mps 762 mmHg 86%

    Tomorrow, 19 December, Tuesday

    Time Temperature Precipitation Wind Pressure Humidity
    00:00 -3°C° 0 mm 2 mps 762 mmHg 87%
    01:00 -3°C° 0 mm 2 mps 762 mmHg 87%
    02:00 -3°C° 0 mm 2 mps 762 mmHg 88%
    03:00 -4°C° 0 mm 2 mps 763 mmHg 89%
    04:00 -4°C° 0 mm 2 mps 763 mmHg 91%
    05:00 -3°C° 0 mm 2 mps 763 mmHg 91%
    06:00 -3°C° 0 mm 2 mps 763 mmHg 92%
    07:00 -3°C° 0 mm 2 mps 763 mmHg 93%
    08:00 -3°C° 0 mm 2 mps 763 mmHg 92%
    09:00 -2°C° 0 mm 2 mps 763 mmHg 91%
    10:00 -2°C° 0 mm 2 mps 763 mmHg 91%
    11:00 -1°C° 0 mm 2 mps 763 mmHg 90%
    12:00 -1°C° 0 mm 2 mps 763 mmHg 90%
    13:00 +1°C° 0 mm 1 mps 763 mmHg 89%
    14:00 +1°C° 0 mm 1 mps 764 mmHg 91%
    15:00 +1°C° 0 mm 1 mps 764 mmHg 93%
    16:00 +1°C° 0 mm 1 mps 764 mmHg 95%
    17:00 +1°C° 0 mm 1 mps 764 mmHg 95%
    18:00 +1°C° 0 mm 1 mps 764 mmHg 95%
    19:00 +1°C° 0 mm 1 mps 764 mmHg 95%
    20:00 +1°C° 0 mm 1 mps 764 mmHg 95%
    21:00 0°C° 0 mm 1 mps 764 mmHg 95%
    22:00 0°C° 0 mm 1 mps 764 mmHg 95%
    23:00 0°C° 0 mm 1 mps 765 mmHg 95%

    Day after tomorrow, 20 December, Wednesday

    Time Temperature Precipitation Wind Pressure Humidity
    00:00 0°C° 0 mm 1 mps 765 mmHg 95%
    01:00 0°C° 0 mm 1 mps 765 mmHg 95%
    02:00 0°C° 0 mm 1 mps 765 mmHg 95%
    03:00 0°C° 0 mm 1 mps 765 mmHg 95%
    04:00 0°C° 0 mm 1 mps 765 mmHg 95%
    05:00 0°C° 0 mm 1 mps 765 mmHg 95%
    06:00 -1°C° 0 mm 1 mps 765 mmHg 95%
    07:00 -1°C° 0 mm 1 mps 765 mmHg 95%
    08:00 -2°C° 0 mm 2 mps 765 mmHg 94%
    09:00 -2°C° 0 mm 2 mps 765 mmHg 94%
    10:00 -2°C° 0 mm 2 mps 766 mmHg 93%
    11:00 -1°C° 0 mm 2 mps 765 mmHg 91%
    12:00 -1°C° 0 mm 2 mps 765 mmHg 89%
    13:00 +1°C° 0 mm 2 mps 765 mmHg 87%
    14:00 -1°C° 0 mm 2 mps 765 mmHg 89%
    15:00 -2°C° 0 mm 2 mps 765 mmHg 91%
    16:00 -2°C° 0 mm 2 mps 764 mmHg 93%
    17:00 -2°C° 0 mm 2 mps 764 mmHg 93%
    18:00 -2°C° 0 mm 2 mps 765 mmHg 94%
    19:00 -3°C° 0 mm 2 mps 765 mmHg 94%
    20:00 -3°C° 0 mm 2 mps 764 mmHg 94%
    21:00 -2°C° 0 mm 2 mps 764 mmHg 94%
    22:00 -2°C° 0 mm 2 mps 764 mmHg 95%
    23:00 -2°C° 0 mm 3 mps 764 mmHg 94%

    21 December, Thursday

    Time Temperature Precipitation Wind Pressure Humidity
    00:00 -2°C° 0 mm 3 mps 764 mmHg 94%
    01:00 -2°C° 0 mm 3 mps 763 mmHg 94%
    02:00 -1°C° 0.1 mm 3 mps 763 mmHg 94%
    03:00 -2°C° 0.1 mm 4 mps 762 mmHg 93%
    04:00 -2°C° 0.1 mm 4 mps 762 mmHg 93%
    05:00 -2°C° 0.3 mm 4 mps 761 mmHg 93%
    06:00 -1°C° 0.3 mm 4 mps 761 mmHg 94%
    07:00 -1°C° 0.3 mm 4 mps 760 mmHg 94%
    08:00 -1°C° 0.6 mm 4 mps 760 mmHg 95%
    09:00 0°C° 0.6 mm 4 mps 759 mmHg 96%
    10:00 0°C° 0.6 mm 4 mps 759 mmHg 97%
    11:00 +1°C° 0 mm 4 mps 758 mmHg 96%
    12:00 +1°C° 0 mm 4 mps 758 mmHg 95%
    13:00 +3°C° 0 mm 4 mps 758 mmHg 94%
    14:00 +1°C° 0 mm 4 mps 758 mmHg 93%
    15:00 +1°C° 0 mm 4 mps 758 mmHg 93%
    16:00 +1°C° 0 mm 4 mps 758 mmHg 92%
    17:00 +1°C° 0 mm 4 mps 758 mmHg 92%
    18:00 +1°C° 0 mm 4 mps 758 mmHg 92%
    19:00 0°C° 0 mm 4 mps 758 mmHg 92%
    20:00 +1°C° 0 mm 4 mps 759 mmHg 93%
    21:00 +1°C° 0 mm 5 mps 759 mmHg 94%
    22:00 +1°C° 0 mm 5 mps 759 mmHg 94%
    23:00 +1°C° 0 mm 5 mps 759 mmHg 94%

    22 December, Friday

    Time Temperature Precipitation Wind Pressure Humidity
    00:00 +1°C° 0 mm 5 mps 758 mmHg 93%
    01:00 +1°C° 0 mm 5 mps 758 mmHg 92%
    02:00 +1°C° 0 mm 6 mps 758 mmHg 91%
    03:00 +1°C° 0 mm 6 mps 758 mmHg 90%
    04:00 +1°C° 0 mm 6 mps 758 mmHg 89%
    05:00 +1°C° 0 mm 6 mps 758 mmHg 89%
    06:00 +1°C° 0 mm 6 mps 758 mmHg 89%
    07:00 0°C° 0 mm 5 mps 758 mmHg 89%
    08:00 +1°C° 0.1 mm 6 mps 758 mmHg 88%
    09:00 +1°C° 0.1 mm 6 mps 758 mmHg 87%
    10:00 +1°C° 0.1 mm 6 mps 758 mmHg 86%
    11:00 +2°C° 0.1 mm 7 mps 758 mmHg 83%
    12:00 +2°C° 0.1 mm 7 mps 757 mmHg 80%
    13:00 +2°C° 0.1 mm 7 mps 757 mmHg 77%
    14:00 +2°C° 0.1 mm 7 mps 757 mmHg 77%
    15:00 0°C° 0.1 mm 7 mps 757 mmHg 76%
    16:00 +1°C° 0.1 mm 6 mps 757 mmHg 76%
    17:00 -1°C° 0.8 mm 6 mps 756 mmHg 79%
    18:00 0°C° 0.8 mm 5 mps 756 mmHg 81%
    19:00 0°C° 0.8 mm 4 mps 755 mmHg 84%
    20:00 0°C° 1.6 mm 4 mps 755 mmHg 84%
    21:00 0°C° 1.6 mm 4 mps 755 mmHg 84%
    22:00 0°C° 1.6 mm 4 mps 754 mmHg 84%
    23:00 -1°C° 0 mm 4 mps 755 mmHg 83%

    23 December, Saturday

    Time Temperature Precipitation Wind Pressure Humidity
    00:00 -1°C° 0 mm 4 mps 756 mmHg 82%
    01:00 -2°C° 0 mm 4 mps 756 mmHg 80%
    02:00 -2°C° 0 mm 4 mps 757 mmHg 81%
    03:00 -2°C° 0 mm 4 mps 758 mmHg 81%
    04:00 -2°C° 0 mm 4 mps 759 mmHg 81%
    05:00 -3°C° 0 mm 4 mps 759 mmHg 81%
    06:00 -3°C° 0 mm 4 mps 759 mmHg 81%
    07:00 -3°C° 0 mm 4 mps 760 mmHg 81%
    08:00 -2°C° 0 mm 3 mps 760 mmHg 81%
    09:00 -1°C° 0 mm 3 mps 760 mmHg 81%
    10:00 -1°C° 0 mm 3 mps 761 mmHg 81%
    11:00 0°C° 0 mm 3 mps 761 mmHg 79%
    12:00 0°C° 0 mm 3 mps 761 mmHg 78%
    13:00 +1°C° 0 mm 3 mps 761 mmHg 76%
    14:00 0°C° 0 mm 3 mps 761 mmHg 78%
    15:00 -1°C° 0 mm 3 mps 761 mmHg 81%
    16:00 -2°C° 0 mm 3 mps 762 mmHg 83%
    17:00 -2°C° 0 mm 3 mps 761 mmHg 83%
    18:00 -2°C° 0 mm 3 mps 761 mmHg 84%
    19:00 -1°C° 0 mm 3 mps 761 mmHg 84%
    20:00 -1°C° 0 mm 3 mps 761 mmHg 83%
    21:00 -2°C° 0 mm 4 mps 760 mmHg 81%
    22:00 -2°C° 0 mm 4 mps 760 mmHg 80%
    23:00 -2°C° 0 mm 4 mps 759 mmHg 82%
    Show more